This is the latest recevied weather packets stored in our database for station/object W1RCY. If no packets are shown the sender has not sent any weather packets the latest 1 day(s).
| Time | Temp. | Humidity | Pressure | Rain* | Wind** | Luminosity | Snow |
|---|---|---|---|---|---|---|---|
| 1778056039 | 15.56° C | 77% | 1007.3 hPa | 0 mm | 1.34 m/s, 174° | 0 W/m² | - |
| 1778055735 | 15.56° C | 77% | 1007.3 hPa | 0 mm | 1.79 m/s, 185° | 0 W/m² | - |
| 1778055433 | 15.56° C | 77% | 1007.2 hPa | 0 mm | 2.68 m/s, 199° | 0 W/m² | - |
| 1778055130 | 15.56° C | 77% | 1006.8 hPa | 0 mm | 2.24 m/s, 172° | 0 W/m² | - |
| 1778054828 | 16.11° C | 76% | 1007.3 hPa | 0 mm | 2.24 m/s, 178° | 0 W/m² | - |
| 1778054524 | 16.11° C | 76% | 1007.3 hPa | 0 mm | 2.68 m/s, 227° | 0 W/m² | - |
| 1778054222 | 16.11° C | 76% | 1007.1 hPa | 0 mm | 2.24 m/s, 173° | 0 W/m² | - |
| 1778053918 | 16.11° C | 75% | 1007.1 hPa | 0 mm | 3.13 m/s, 176° | 0 W/m² | - |
| 1778053616 | 16.11° C | 76% | 1007.1 hPa | 0 mm | 2.24 m/s, 178° | 0 W/m² | - |
| 1778053313 | 16.11° C | 75% | 1007 hPa | 0 mm | 3.13 m/s, 175° | 0 W/m² | - |
| 1778053011 | 16.11° C | 76% | 1007.4 hPa | 0 mm | 3.13 m/s, 192° | 0 W/m² | - |
| 1778052708 | 16.11° C | 76% | 1007.4 hPa | 0 mm | 2.68 m/s, 169° | 0 W/m² | - |
| 1778052404 | 16.11° C | 76% | 1007.4 hPa | 0 mm | 1.79 m/s, 222° | 0 W/m² | - |
| 1778052102 | 16.11° C | 76% | 1007.2 hPa | 0 mm | 1.34 m/s, 201° | 0 W/m² | - |
| 1778051800 | 16.11° C | 76% | 1007.5 hPa | 0 mm | 1.34 m/s, 162° | 0 W/m² | - |
| 1778051497 | 16.11° C | 76% | 1007.2 hPa | 0 mm | 2.24 m/s, 193° | 0 W/m² | - |
| 1778051194 | 16.11° C | 75% | 1007.1 hPa | 0 mm | 2.68 m/s, 164° | 0 W/m² | - |
| 1778050891 | 16.11° C | 74% | 1007.1 hPa | 0 mm | 3.13 m/s, 179° | 0 W/m² | - |
| 1778050590 | 16.11° C | 75% | 1007 hPa | 0 mm | 3.58 m/s, 186° | 0 W/m² | - |
| 1778050286 | 16.11° C | 74% | 1006.8 hPa | 0 mm | 4.02 m/s, 168° | 0 W/m² | - |
| 1778049983 | 16.11° C | 74% | 1006.7 hPa | 0 mm | 2.68 m/s, 184° | 0 W/m² | - |
| 1778049678 | 16.11° C | 74% | 1006.9 hPa | 0 mm | 3.58 m/s, 175° | 0 W/m² | - |
| 1778049376 | 16.11° C | 74% | 1006.9 hPa | 0 mm | 3.58 m/s, 174° | 0 W/m² | - |
| 1778049073 | 16.11° C | 75% | 1006.7 hPa | 0 mm | 3.13 m/s, 176° | 0 W/m² | - |
| 1778048772 | 16.11° C | 75% | 1006.9 hPa | 0 mm | 3.58 m/s, 188° | 0 W/m² | - |
* Rain latest hour (hover to see other rain measurements)
** Current wind speed in m/s (hover to see current wind gust speed)